Location: Pirmasens
(49.2041°N, 7.6035°E)
Time: 03:09:06
(UTC+00:00)

Daily predictions for brighter satellites

Satellite Brightness Start Highest point End
(mag) Time Altitude Azimuth Time Altitude Azimuth Time Altitude Azimuth
CZ-4C R/B 4.0 00:06:34 29° NNW 00:06:34 29° NNW 00:11:46 10° NE
Cosmos 2369 Rocket 4.1 00:10:57 25° N 00:10:57 25° N 00:13:38 10° NNE
USA 234 4.1 00:02:16 10° ENE 00:07:48 45° NNE 00:07:48 45° NNE
ADEOS II 4.3 00:41:45 10° NE 00:44:28 19° ENE 00:44:28 19° ENE
Cosmos 2227 Rocket 4.0 00:51:46 10° NNW 00:54:07 25° NNW 00:54:07 25° NNW
SL-16 R/B 3.5 01:15:09 39° NNW 01:15:09 39° NNW 01:18:52 10° NNW
USA 267 4.4 01:08:25 10° ENE 01:13:06 31° ESE 01:13:06 31° ESE
CZ-2D R/B 3.3 01:15:28 10° NNE 01:18:48 40° NNE 01:18:48 40° NNE
Lacrosse 5 3.7 01:29:27 25° E 01:29:27 25° E 01:31:56 10° ENE
Resurs 1-4 Rocket 3.2 01:22:35 10° NNE 01:25:56 41° NNE 01:25:56 41° NNE
ATLAS 5 CENTAUR R/B 3.6 01:30:41 27° NNE 01:30:41 27° NNE 01:33:11 10° NE
NPP 4.5 01:26:26 10° NNE 01:30:13 47° NNE 01:30:13 47° NNE
Cosmos 1818 4.3 01:44:09 49° NNE 01:44:09 49° NNE 01:48:16 10° NE
Cosmos 2297 Rocket 4.4 01:38:29 10° NW 01:39:21 15° NW 01:39:21 15° NW
USA 234 3.4 01:44:30 10° ESE 01:50:58 69° NNE 01:55:07 24° NW
Cosmos 1821 Rocket 4.1 01:52:47 10° N 01:59:08 74° E 02:00:05 63° SE
CZ-4B R/B 3.9 01:54:30 10° NNE 01:58:43 61° NNE 01:58:43 61° NNE
Cosmos 1697 Rocket 2.9 02:01:35 64° E 02:01:35 64° E 02:06:56 10° NNE
Cosmos 972 Rocket 4.5 02:05:43 52° E 02:05:43 52° E 02:10:11 10° NNE
Cosmos 1980 Rocket 3.1 02:05:37 38° SE 02:06:32 40° ESE 02:11:47 10° NE
NOSS 2-2 (C) 4.3 02:06:12 64° NW 02:07:14 90° NE 02:14:51 10° SE
Cosmos 2263 Rocket 3.4 02:05:51 10° NNW 02:11:11 41° NE 02:16:32 10° ESE
Meteor 1-25 Rocket 4.1 02:08:48 10° NNW 02:14:40 89° E 02:14:52 84° SSE
Gbstr 26 Del rocket 4.4 02:18:38 35° WNW 02:22:31 85° NNE 02:30:09 10° ESE
Cosmos 1328 Rocket 4.1 02:24:02 55° N 02:24:02 55° N 02:27:33 10° N
IRS-P3 Rocket 4.5 02:19:11 10° NNE 02:24:39 82° WNW 02:24:44 81° W
CZ-3B R/B 2.5 02:25:23 57° NE 02:25:23 57° NE 02:31:17 10° ENE
Cosmos 1151 Rocket 3.8 02:26:32 47° N 02:26:32 47° N 02:29:42 10° N
ADEOS II 2.1 02:20:30 10° N 02:25:24 65° NW 02:25:24 65° NW
USA 305 3.6 02:27:21 51° E 02:27:21 51° E 02:30:39 10° ENE
Nadezhda 3 Rocket 3.8 02:26:57 64° SSW 02:28:00 85° W 02:34:12 10° N
Cosmos 1933 Rocket 3.8 02:24:53 10° N 02:28:51 65° NE 02:28:51 65° NE
USA 306 3.4 02:31:23 56° E 02:31:23 56° E 02:34:50 10° ENE
ARIANE 5 R/B 2.6 02:25:31 10° NNE 02:30:39 72° ESE 02:31:22 61° SSE
Cosmos 1656 4.1 02:32:28 46° NW 02:32:28 46° NW 02:37:44 10° NNE
IDEFIX/ARIANE 42P 2.9 02:29:50 10° NNE 02:35:05 62° ESE 02:36:51 40° SSE
IRS-1D 3.9 02:30:26 10° N 02:35:24 51° WNW 02:35:24 51° WNW
Meteor 1-14 Rocket 4.2 02:33:06 10° N 02:38:47 82° ENE 02:42:39 21° SSE
ASTEX 1 3.5 02:34:53 10° N 02:39:54 73° E 02:41:21 46° SSE
Cosmos 2228 Rocket 4.1 02:39:36 29° SE 02:41:19 43° E 02:45:32 10° NNE
CBERS-1 4.5 02:39:53 10° N 02:44:31 45° WNW 02:44:31 45° WNW
CZ-2D R/B 3.6 02:43:35 10° NNE 02:47:49 75° ESE 02:48:18 66° SSE
IRS-1C 4.1 02:46:42 10° N 02:51:59 62° WNW 02:52:49 55° WSW
USA 267 3.2 02:51:08 10° ENE 02:57:43 89° SE 03:00:27 39° WSW
USA 307 2.7 02:57:59 75° WNW 02:58:15 81° NNW 03:02:31 10° ENE
Cosmos 1238 Rocket 3.9 02:51:56 10° NNW 02:58:35 77° W 03:04:09 13° S
Cosmos 1782 2.9 02:59:09 64° NW 02:59:09 64° NW 03:02:53 10° N
SJ 16-02 1.5 02:54:28 10° NNW 02:58:52 70° ENE 03:03:14 10° SSE
CZ-2C R/B 3.2 02:55:27 10° NNE 02:59:12 59° ESE 03:00:11 42° SSE
NOSS 3-3 (A) 4.4 02:56:41 29° S 02:59:35 54° ESE 03:05:56 10° NE
NOSS 3-3 (C) 4.4 02:56:51 28° S 02:59:42 54° ESE 03:06:00 10° NE
CZ-2D R/B 3.7 02:56:38 10° NNW 03:00:07 19° NW 03:00:07 19° NW
Cosmos 44 3.2 02:59:36 53° S 03:00:31 72° SE 03:05:12 10° NE
USA 308 2.8 03:01:02 70° W 03:01:26 78° NNW 03:05:43 10° ENE
Meteor 1-4 Rocket 4.3 02:59:37 16° SSE 03:01:48 30° E 03:04:55 10° NNE
Cosmos 389 Rocket 2.7 03:02:26 62° NNW 03:02:26 62° NNW 03:05:32 10° N
USA 276 2.6 03:04:24 60° ENE 03:04:24 60° ENE 03:07:10 10° E
Cosmos 2278 3.6 03:02:26 44° SW 03:04:18 75° WNW 03:10:02 10° NNE
Resurs 1-4 Rocket 3.9 03:03:47 10° NNW 03:06:59 16° NW 03:07:00 16° NW
Cosmos 990 Rocket 4.4 03:01:52 10° NNW 03:07:03 65° ENE 03:12:13 10° SE
ATLAS CENTAUR R/B 4.2 02:55:55 10° WNW 03:09:05 51° N 03:14:04 10° E
H-2A R/B 2.1 03:05:15 10° SSE 03:09:37 83° ENE 03:14:08 10° NNW
Lacrosse 5 2.0 03:08:39 44° W 03:10:06 64° NNW 03:15:10 10° NE
ERBS 3.4 03:11:02 32° SSE 03:11:26 33° SE 03:14:31 10° ENE
ATLAS 2AS CENTAUR R/B 3.6 03:05:14 10° NW 03:12:44 54° NE 03:19:40 10° ESE
Cosmos 2369 4.1 03:11:29 37° W 03:13:09 48° NW 03:18:42 10° NNE
ATLAS 5 CENTAUR R/B 3.7 03:12:12 14° NW 03:14:20 19° NNW 03:17:56 10° NNE
Cosmos 1339 Rocket 4.4 03:15:35 15° SSW 03:20:56 82° W 03:27:10 10° N
Meteor 1-11 Rocket 4.1 03:15:49 10° N 03:21:38 70° ENE 03:27:17 10° SSE
Landsat 5 3.5 03:17:45 10° S 03:22:16 74° WSW 03:26:46 10° NNW
ADEOS Rocket 3.5 03:16:50 10° SSE 03:23:30 67° ENE 03:29:31 10° N
CZ-4B R/B 3.2 03:21:40 10° SE 03:24:31 32° ENE 03:27:28 10° N
Cosmos 972 4.4 03:25:30 33° SW 03:27:35 60° WNW 03:32:26 10° NNE
Spot 4 Rocket 4.2 03:26:05 10° N 03:31:05 52° WNW 03:33:40 27° SW
ERS-2 2.1 03:28:47 10° SSE 03:32:27 85° ENE 03:36:08 10° NNW
MSX 3.8 03:27:39 10° N 03:33:23 67° WNW 03:37:57 17° SSW
USA 234 3.4 03:27:52 10° SSE 03:34:10 51° SW 03:40:32 10° WNW
Meteor 1-27 Rocket 4.4 03:29:46 10° S 03:35:35 60° E 03:41:24 10° NNE
Cosmos 2360 Rocket 4.0 03:35:40 10° SSE 03:40:33 31° ESE 03:45:27 10° NE
Cosmos 1536 3.2 03:37:39 10° N 03:41:45 69° E 03:45:47 10° SSE
Cosmos 1898 Rocket 3.4 03:36:47 10° NNW 03:42:03 75° WSW 03:47:18 10° SSE
X-37B 1.5 03:42:02 30° SSW 03:42:18 31° SSW 03:45:11 10° SE
IRIDIUM 104 4.3 03:39:39 10° N 03:44:50 64° W 03:49:59 10° S
Cosmos 1697 Rocket 3.8 03:43:20 21° W 03:45:48 28° NW 03:50:35 10° NNE
BREEZE M DEB (TANK) 4.2 03:32:13 10° WNW 03:46:47 47° SW 03:51:16 10° SSE
CZ-4C R/B 4.1 03:40:46 10° NW 03:47:06 41° NNE 03:54:29 10° E
SL-8 R/B 4.4 03:45:53 25° WSW 03:47:37 33° SSW 03:51:53 10° SSE
Cosmos 1980 Rocket 2.8 03:47:24 22° WSW 03:50:33 41° NW 03:55:54 10° NNE
Cosmos 858 Rocket 4.4 03:47:35 10° NNW 03:52:49 83° WSW 03:58:00 10° SSE
IRIDIUM 114 4.4 03:48:52 10° NNW 03:53:57 53° W 03:59:00 10° SSW
Cosmos 2263 Rocket 2.6 03:49:53 10° NW 03:55:07 40° WSW 04:00:21 10° S
Cosmos 921 Rocket 3.3 03:52:49 22° SW 03:55:11 45° WNW 03:59:14 10° N
Cosmos 2322 Rocket 2.5 03:51:27 10° SSW 03:57:05 71° ESE 04:02:47 10° NNE
USA 32 4.0 03:54:24 10° N 03:59:39 68° W 04:04:51 10° S
Cosmos 1844 Rocket 3.3 03:55:43 10° NNW 04:01:18 61° ENE 04:06:54 10° SE
Cosmos 1500 4.3 03:58:33 10° NW 04:01:41 24° W 04:03:18 18° SW
Cosmos 2173 Rocket 4.1 03:55:56 10° N 04:02:18 90° E 04:08:41 10° S
Cosmos 1812 3.3 04:01:20 18° SW 04:03:44 35° WNW 04:07:20 10° N
Cosmos 1707 Rocket 3.4 03:59:48 10° SSW 04:04:07 72° W 04:08:29 10° N
ADEOS II 4.0 04:02:10 10° NNW 04:04:30 13° NW 04:06:19 11° WNW
SL-16 R/B 2.2 04:00:32 10° SSW 04:06:13 85° WNW 04:11:57 10° NNE
USA 305 3.5 04:03:31 16° W 04:06:37 48° N 04:10:45 10° ENE
CZ-4C R/B 4.4 04:06:18 19° WSW 04:07:14 20° W 04:10:00 10° NW
Cosmos 1666 3.0 04:03:49 10° NNW 04:07:28 42° W 04:11:03 10° SSW
Cosmos 1937 Rocket 3.4 04:02:49 10° NNW 04:07:54 63° WSW 04:12:58 10° S
ARIANE 5 R/B 4.0 04:05:36 10° NNW 04:09:13 20° WNW 04:11:42 14° W
ADEOS 3.7 04:04:52 10° NNE 04:10:07 78° ESE 04:15:21 10° SSW
USA 306 3.5 04:07:32 15° W 04:10:50 47° N 04:14:58 10° ENE
IDEFIX/ARIANE 42P 3.8 04:10:09 10° N 04:14:16 24° WNW 04:17:39 13° WSW
CZ-2C R/B 2.7 04:13:47 10° N 04:18:45 52° WNW 04:23:46 10° SW
Cosmos 841 Rocket 3.8 04:14:02 10° SSW 04:19:14 74° ESE 04:24:31 10° NNE
Cosmos 1733 Rocket 3.0 04:15:13 10° NNW 04:19:32 64° W 04:23:49 10° S
Cosmos 2228 Rocket 4.4 04:17:08 14° WSW 04:19:45 22° WNW 04:23:13 10° NNW
SAR-Lupe-4 3.6 04:17:51 10° S 04:21:24 58° WSW 04:24:58 10° NNW
Cosmos 2061 Rocket 4.2 04:15:00 10° N 04:21:28 85° ENE 04:27:56 10° S
Cosmos 44 Rocket 4.0 04:19:23 10° SSW 04:23:59 54° ESE 04:28:44 10° NE
SKYMED 2 4.1 04:19:47 10° SSE 04:24:05 66° ENE 04:28:25 10° N
SL-4 R/B 2.9 04:21:50 10° SW 04:26:20 54° SSE 04:31:02 10° ENE
Cosmos 1763 Rocket 3.7 04:22:50 10° SW 04:28:04 55° WNW 04:33:17 10° NNE
Cosmos 2219 Rocket 4.4 04:26:19 10° SSE 04:31:06 29° ESE 04:35:56 10° NE
Cosmos 2016 Rocket 3.9 04:26:52 10° NNW 04:33:00 80° W 04:39:05 10° S
SAR-Lupe-1 4.4 04:30:11 10° S 04:33:36 44° W 04:37:03 10° NNW
FALCON 9 DEB 3.6 04:30:32 10° SW 04:33:55 57° SSE 04:37:18 10° ENE
SJ 16-02 3.0 04:34:31 10° WNW 04:36:52 14° W 04:39:12 10° SW
Meteor 1-4 Rocket 3.9 04:34:14 10° WSW 04:36:54 20° WNW 04:39:36 10° NNW
Cosmos 1862 Rocket 3.5 04:33:56 10° SSW 04:38:17 65° WNW 04:42:38 10° N
PSLV R/B 4.5 04:34:43 10° N 04:38:18 28° WNW 04:41:51 10° WSW
Cosmos 1975 3.7 04:34:26 10° N 04:38:24 55° ENE 04:42:19 10° SSE
USA 307 3.7 04:34:35 10° WNW 04:38:40 43° N 04:42:46 10° ENE
NOSS 3-4 (A) 4.0 04:33:03 10° NW 04:39:53 58° WSW 04:47:26 10° SSE
NOSS 3-4 (C) 4.0 04:33:09 10° NW 04:39:59 58° SW 04:47:33 10° SSE
USA 276 2.1 04:37:04 10° WNW 04:40:19 83° SSW 04:43:32 10° ESE
USA 267 3.8 04:34:12 10° ENE 04:40:29 51° NNW 04:46:45 10° W
Cosmos 1570 Rocket 4.1 04:35:13 10° SSW 04:40:32 79° WNW 04:45:56 10° NNE
USA 308 3.7 04:37:47 10° WNW 04:41:53 43° N 04:45:58 10° ENE
Meteor 2-20 4.4 04:36:41 10° SSW 04:42:48 75° WNW 04:48:57 10° N
BREEZE-M DEB (TANK) 3.0 04:37:10 10° WSW 04:42:56 43° S 04:45:27 10° E
BREEZE-M DEB (TANK) 3.8 04:40:57 10° W 04:44:20 89° N 04:55:18 10° E
Cosmos 2233 Rocket 4.4 04:38:36 10° N 04:44:46 72° E 04:50:53 10° SSE
Cosmos 2333 Rocket 3.8 04:41:01 10° S 04:46:22 41° ESE 04:51:43 10° NE
